| time (UTC) | temp F | wind direction | speed MPH | gust MPH | rain 1hr in | rain 24hr in | rain mn in | humidity % | barometer mb |
| 20260506004305 | 71 | 119 | 4.0 | 8.0 | 0.00 | 0.00 | 0.00 | 52 | 1008.1 |
| 20260506003838 | 71 | 116 | 4.0 | 9.0 | 0.00 | 0.00 | 0.00 | 51 | 1007.8 |
| 20260506002945 | 72 | 125 | 3.0 | 10.0 | 0.00 | 0.00 | 0.00 | 50 | 1007.8 |
| 20260506002306 | 72 | 123 | 4.0 | 11.0 | 0.00 | 0.00 | 0.00 | 49 | 1007.8 |
| 20260506001625 | 72 | 112 | 5.0 | 11.0 | 0.00 | 0.00 | 0.00 | 48 | 1007.8 |
| 20260506000945 | 73 | 92 | 3.0 | 12.0 | 0.00 | 0.00 | 0.00 | 47 | 1007.8 |
| 20260506000305 | 73 | 104 | 4.0 | 10.0 | 0.00 | 0.00 | 0.00 | 47 | 1007.5 |
| 20260505235626 | 74 | 124 | 4.0 | 13.0 | 0.00 | 0.00 | 0.00 | 47 | 1007.5 |
| 20260505234945 | 74 | 128 | 6.0 | 12.0 | 0.00 | 0.00 | 0.00 | 45 | 1007.5 |
| 20260505234518 | 75 | 137 | 6.0 | 14.0 | 0.00 | 0.00 | 0.00 | 44 | 1007.5 |
| 20260505233625 | 75 | 136 | 7.0 | 17.0 | 0.00 | 0.00 | 0.00 | 44 | 1007.5 |
| 20260505232945 | 75 | 125 | 7.0 | 17.0 | 0.00 | 0.00 | 0.00 | 43 | 1007.5 |
| 20260505232305 | 76 | 134 | 4.0 | 10.0 | 0.00 | 0.00 | 0.00 | 44 | 1007.5 |
| 20260505231626 | 76 | 134 | 5.0 | 11.0 | 0.00 | 0.00 | 0.00 | 45 | 1007.5 |
| 20260505230946 | 76 | 110 | 5.0 | 10.0 | 0.00 | 0.00 | 0.00 | 44 | 1007.1 |
| 20260505230305 | 77 | 132 | 5.0 | 12.0 | 0.00 | 0.00 | 0.00 | 43 | 1007.5 |
| 20260505225837 | 77 | 121 | 4.0 | 12.0 | 0.00 | 0.00 | 0.00 | 42 | 1007.5 |
| 20260505224945 | 77 | 161 | 6.0 | 12.0 | 0.00 | 0.00 | 0.00 | 42 | 1007.5 |
| 20260505224305 | 77 | 137 | 6.0 | 12.0 | 0.00 | 0.00 | 0.00 | 41 | 1007.5 |
| 20260505223625 | 77 | 111 | 4.0 | 14.0 | 0.00 | 0.00 | 0.00 | 42 | 1007.5 |
| 20260505222945 | 77 | 152 | 7.0 | 14.0 | 0.00 | 0.00 | 0.00 | 41 | 1007.1 |
| 20260505222306 | 78 | 107 | 3.0 | 11.0 | 0.00 | 0.00 | 0.00 | 41 | 1007.5 |
| 20260505221625 | 78 | 129 | 4.0 | 14.0 | 0.00 | 0.00 | 0.00 | 40 | 1007.5 |
| 20260505220946 | 78 | 136 | 7.0 | 16.0 | 0.00 | 0.00 | 0.00 | 40 | 1007.5 |
| 20260505220305 | 78 | 124 | 4.0 | 14.0 | 0.00 | 0.00 | 0.00 | 40 | 1007.5 |
| 20260505215625 | 78 | 109 | 6.0 | 14.0 | 0.00 | 0.00 | 0.00 | 39 | 1007.5 |
| 20260505214945 | 80 | 154 | 4.0 | 17.0 | 0.00 | 0.00 | 0.00 | 39 | 1007.5 |
| 20260505214305 | 79 | 163 | 8.0 | 17.0 | 0.00 | 0.00 | 0.00 | 39 | 1007.5 |
| 20260505213625 | 79 | 136 | 5.0 | 13.0 | 0.00 | 0.00 | 0.00 | 39 | 1007.5 |
| 20260505212946 | 79 | 135 | 7.0 | 15.0 | 0.00 | 0.00 | 0.00 | 38 | 1007.5 |
| 20260505212306 | 79 | 131 | 6.0 | 16.0 | 0.00 | 0.00 | 0.00 | 39 | 1007.5 |
| 20260505211625 | 80 | 140 | 5.0 | 16.0 | 0.00 | 0.00 | 0.00 | 38 | 1007.8 |
| 20260505210945 | 80 | 112 | 5.0 | 13.0 | 0.00 | 0.00 | 0.00 | 39 | 1007.5 |
| 20260505210305 | 80 | 146 | 5.0 | 15.0 | 0.00 | 0.00 | 0.00 | 37 | 1007.8 |
| 20260505205838 | 80 | 120 | 6.0 | 15.0 | 0.00 | 0.00 | 0.00 | 37 | 1007.8 |
| 20260505204945 | 80 | 132 | 5.0 | 17.0 | 0.00 | 0.00 | 0.00 | 37 | 1007.5 |
| 20260505204514 | 79 | 185 | 7.0 | 16.0 | 0.00 | 0.00 | 0.00 | 37 | 1007.5 |
| 20260505203625 | 79 | 127 | 6.0 | 15.0 | 0.00 | 0.00 | 0.00 | 38 | 1007.5 |
| 20260505202946 | 80 | 114 | 6.0 | 13.0 | 0.00 | 0.00 | 0.00 | 38 | 1007.8 |
| 20260505202307 | 80 | 132 | 6.0 | 13.0 | 0.00 | 0.00 | 0.00 | 37 | 1007.5 |
| 20260505201625 | 80 | 203 | 5.0 | 13.0 | 0.00 | 0.00 | 0.00 | 40 | 1007.8 |
| 20260505200945 | 79 | 206 | 5.0 | 13.0 | 0.00 | 0.00 | 0.00 | 38 | 1007.8 |
| 20260505200518 | 78 | 94 | 5.0 | 14.0 | 0.00 | 0.00 | 0.00 | 39 | 1007.8 |
| 20260505195626 | 80 | 129 | 5.0 | 16.0 | 0.00 | 0.00 | 0.00 | 38 | 1008.1 |
| 20260505194946 | 80 | 171 | 6.0 | 16.0 | 0.00 | 0.00 | 0.00 | 37 | 1008.1 |
| 20260505194305 | 80 | 128 | 6.0 | 14.0 | 0.00 | 0.00 | 0.00 | 38 | 1008.1 |
| 20260505193625 | 79 | 128 | 6.0 | 14.0 | 0.00 | 0.00 | 0.00 | 39 | 1008.5 |
| 20260505192945 | 78 | 130 | 7.0 | 16.0 | 0.00 | 0.00 | 0.00 | 39 | 1008.5 |
| 20260505192306 | 80 | 107 | 5.0 | 15.0 | 0.00 | 0.00 | 0.00 | 38 | 1008.5 |
| 20260505191626 | 80 | 135 | 6.0 | 14.0 | 0.00 | 0.00 | 0.00 | 38 | 1008.5 |
| 20260505190945 | 80 | 176 | 7.0 | 14.0 | 0.00 | 0.00 | 0.00 | 38 | 1008.8 |
| 20260505190519 | 79 | 98 | 7.0 | 13.0 | 0.00 | 0.00 | 0.00 | 40 | 1008.8 |
| 20260505185625 | 80 | 84 | 4.0 | 13.0 | 0.00 | 0.00 | 0.00 | 37 | 1008.8 |
| 20260505184945 | 79 | 153 | 6.0 | 13.0 | 0.00 | 0.00 | 0.00 | 37 | 1009.1 |
| 20260505184516 | 80 | 119 | 6.0 | 13.0 | 0.00 | 0.00 | 0.00 | 37 | 1009.1 |
| 20260505183625 | 80 | 127 | 5.0 | 14.0 | 0.00 | 0.00 | 0.00 | 35 | 1009.5 |
| 20260505182945 | 79 | 157 | 5.0 | 17.0 | 0.00 | 0.00 | 0.00 | 38 | 1009.1 |
| 20260505182306 | 78 | 201 | 10.0 | 17.0 | 0.00 | 0.00 | 0.00 | 38 | 1009.1 |
| 20260505181625 | 80 | 120 | 6.0 | 15.0 | 0.00 | 0.00 | 0.00 | 37 | 1009.5 |
| 20260505180945 | 79 | 138 | 5.0 | 15.0 | 0.00 | 0.00 | 0.00 | 39 | 1009.5 |
| 20260505180305 | 78 | 135 | 5.0 | 15.0 | 0.00 | 0.00 | 0.00 | 40 | 1009.5 |
| 20260505175835 | 79 | 97 | 5.0 | 13.0 | 0.00 | 0.00 | 0.00 | 38 | 1009.5 |
| 20260505174945 | 78 | 124 | 7.0 | 16.0 | 0.00 | 0.00 | 0.00 | 40 | 1009.5 |
| 20260505174305 | 78 | 202 | 9.0 | 16.0 | 0.00 | 0.00 | 0.00 | 39 | 1009.5 |
| 20260505173625 | 79 | 175 | 5.0 | 18.0 | 0.00 | 0.00 | 0.00 | 40 | 1009.5 |
| 20260505172945 | 78 | 191 | 8.0 | 13.0 | 0.00 | 0.00 | 0.00 | 40 | 1009.5 |
| 20260505172306 | 78 | 123 | 5.0 | 17.0 | 0.00 | 0.00 | 0.00 | 40 | 1009.5 |
| 20260505171625 | 77 | 181 | 7.0 | 14.0 | 0.00 | 0.00 | 0.00 | 41 | 1009.5 |
| 20260505170945 | 78 | 157 | 4.0 | 16.0 | 0.00 | 0.00 | 0.00 | 41 | 1009.8 |
| 20260505170305 | 77 | 143 | 5.0 | 15.0 | 0.00 | 0.00 | 0.00 | 42 | 1009.8 |
| 20260505165625 | 77 | 132 | 5.0 | 14.0 | 0.00 | 0.00 | 0.00 | 43 | 1009.8 |
| 20260505164945 | 77 | 134 | 5.0 | 11.0 | 0.00 | 0.00 | 0.00 | 44 | 1009.8 |
| 20260505164305 | 77 | 112 | 4.0 | 11.0 | 0.00 | 0.00 | 0.00 | 44 | 1010.2 |
| 20260505163625 | 76 | 119 | 5.0 | 12.0 | 0.00 | 0.00 | 0.00 | 44 | 1009.8 |
| 20260505162945 | 77 | 76 | 3.0 | 11.0 | 0.00 | 0.00 | 0.00 | 44 | 1010.2 |
| 20260505162307 | 75 | 123 | 6.0 | 15.0 | 0.00 | 0.00 | 0.00 | 45 | 1010.2 |
| 20260505161625 | 75 | 188 | 3.0 | 16.0 | 0.00 | 0.00 | 0.00 | 47 | 1010.5 |
| 20260505160945 | 75 | 172 | 4.0 | 12.0 | 0.00 | 0.00 | 0.00 | 47 | 1010.5 |
| 20260505160305 | 75 | 136 | 4.0 | 13.0 | 0.00 | 0.00 | 0.00 | 46 | 1010.5 |
| 20260505153159 | 74 | 136 | 4.0 | 11.0 | 0.00 | 0.00 | 0.00 | 49 | 1010.8 |
| 20260505152305 | 73 | 192 | 6.0 | 15.0 | 0.00 | 0.00 | 0.00 | 50 | 1010.8 |
| 20260505151625 | 73 | 67 | 5.0 | 17.0 | 0.00 | 0.00 | 0.00 | 50 | 1010.5 |
| 20260505150945 | 72 | 172 | 3.0 | 17.0 | 0.00 | 0.00 | 0.00 | 52 | 1010.8 |
| 20260505150305 | 72 | 194 | 5.0 | 13.0 | 0.00 | 0.00 | 0.00 | 51 | 1010.8 |
| 20260505140305 | 68 | 192 | 4.0 | 14.0 | 0.00 | 0.00 | 0.00 | 60 | 1010.8 |
| 20260505130305 | 66 | 184 | 4.0 | 11.0 | 0.00 | 0.00 | 0.00 | 65 | 1010.8 |
| 20260505124945 | 64 | 192 | 4.0 | 9.0 | 0.00 | 0.00 | 0.00 | 68 | 1010.8 |
| 20260505124305 | 64 | 195 | 3.0 | 8.0 | 0.00 | 0.00 | 0.00 | 68 | 1010.8 |
| 20260505123625 | 63 | 305 | 3.0 | 8.0 | 0.00 | 0.00 | 0.00 | 69 | 1010.8 |
| 20260505122945 | 62 | 192 | 4.0 | 9.0 | 0.00 | 0.00 | 0.00 | 70 | 1010.8 |
| 20260505122306 | 61 | 192 | 4.0 | 9.0 | 0.00 | 0.00 | 0.00 | 71 | 1010.8 |
| 20260505121625 | 61 | 213 | 2.0 | 7.0 | 0.00 | 0.00 | 0.00 | 72 | 1010.8 |
| 20260505120945 | 60 | 195 | 3.0 | 7.0 | 0.00 | 0.00 | 0.00 | 72 | 1010.8 |
| 20260505120306 | 59 | 185 | 2.0 | 5.0 | 0.00 | 0.00 | 0.00 | 75 | 1010.8 |
| 20260505115625 | 59 | 172 | 2.0 | 7.0 | 0.00 | 0.00 | 0.00 | 75 | 1010.5 |
| 20260505114945 | 59 | 190 | 3.0 | 7.0 | 0.00 | 0.00 | 0.00 | 74 | 1010.5 |
| 20260505114305 | 59 | 141 | 1.0 | 4.0 | 0.00 | 0.00 | 0.00 | 75 | 1010.5 |
| 20260505113626 | 58 | 124 | 1.0 | 5.0 | 0.00 | 0.00 | 0.00 | 77 | 1010.5 |
| 20260505112945 | 57 | 125 | 2.0 | 5.0 | 0.00 | 0.00 | 0.00 | 78 | 1010.5 |
| 20260505112305 | 56 | 132 | 2.0 | 4.0 | 0.00 | 0.00 | 0.00 | 79 | 1010.5 |
| 20260505111838 | 56 | 141 | 1.0 | 4.0 | 0.00 | 0.00 | 0.00 | 79 | 1010.5 |
| 20260505111158 | 56 | 157 | 1.0 | 2.0 | 0.00 | 0.00 | 0.00 | 80 | 1010.2 |
| 20260505110519 | 56 | 149 | 1.0 | 3.0 | 0.00 | 0.00 | 0.00 | 80 | 1010.2 |
| 20260505101625 | 55 | 164 | 1.0 | 4.0 | 0.00 | 0.00 | 0.00 | 82 | 1009.5 |
| 20260505101159 | 55 | 177 | 2.0 | 4.0 | 0.00 | 0.00 | 0.00 | 81 | 1009.5 |
| 20260505100305 | 55 | 149 | 2.0 | 3.0 | 0.00 | 0.00 | 0.00 | 81 | 1009.5 |
| 20260505095835 | 55 | 143 | 1.0 | 3.0 | 0.00 | 0.00 | 0.00 | 80 | 1009.5 |
| 20260505095156 | 55 | 134 | 1.0 | 3.0 | 0.00 | 0.00 | 0.00 | 80 | 1009.5 |
| 20260505094516 | 55 | 160 | 1.0 | 4.0 | 0.00 | 0.00 | 0.00 | 79 | 1009.5 |
| 20260505093626 | 56 | 162 | 1.0 | 4.0 | 0.00 | 0.00 | 0.00 | 78 | 1009.5 |
| 20260505092945 | 56 | 152 | 1.0 | 3.0 | 0.00 | 0.00 | 0.00 | 78 | 1009.5 |
| 20260505092305 | 56 | 191 | 1.0 | 4.0 | 0.00 | 0.00 | 0.00 | 77 | 1009.1 |
| 20260505091626 | 57 | 171 | 2.0 | 5.0 | 0.00 | 0.00 | 0.00 | 76 | 1009.1 |
| 20260505090945 | 57 | 174 | 3.0 | 5.0 | 0.00 | 0.00 | 0.00 | 76 | 1009.1 |
| 20260505090305 | 57 | 183 | 3.0 | 6.0 | 0.00 | 0.00 | 0.00 | 75 | 1009.1 |
| 20260505085625 | 57 | 185 | 3.0 | 5.0 | 0.00 | 0.00 | 0.00 | 74 | 1009.1 |
| 20260505085156 | 57 | 189 | 3.0 | 5.0 | 0.00 | 0.00 | 0.00 | 74 | 1008.8 |
| 20260505084305 | 58 | 185 | 3.0 | 6.0 | 0.00 | 0.00 | 0.00 | 73 | 1008.8 |
| 20260505083625 | 58 | 183 | 3.0 | 6.0 | 0.00 | 0.00 | 0.00 | 74 | 1008.8 |
| 20260505082945 | 58 | 180 | 2.0 | 8.0 | 0.00 | 0.00 | 0.00 | 73 | 1008.8 |
| 20260505082305 | 58 | 154 | 2.0 | 8.0 | 0.00 | 0.00 | 0.00 | 72 | 1008.8 |
| 20260505081834 | 58 | 178 | 2.0 | 5.0 | 0.00 | 0.00 | 0.00 | 72 | 1008.8 |
| 20260505080945 | 58 | 178 | 2.0 | 5.0 | 0.00 | 0.00 | 0.00 | 72 | 1008.8 |
| 20260505080305 | 58 | 163 | 2.0 | 6.0 | 0.00 | 0.00 | 0.00 | 72 | 1008.8 |
| 20260505075836 | 58 | 147 | 2.0 | 5.0 | 0.00 | 0.00 | 0.00 | 72 | 1008.8 |
| 20260505074945 | 58 | 145 | 1.0 | 4.0 | 0.00 | 0.00 | 0.00 | 72 | 1008.8 |
| 20260505074306 | 58 | 169 | 2.0 | 6.0 | 0.00 | 0.00 | 0.00 | 71 | 1008.8 |
| 20260505073626 | 58 | 169 | 3.0 | 6.0 | 0.00 | 0.00 | 0.00 | 71 | 1008.8 |
| 20260505072945 | 58 | 175 | 2.0 | 7.0 | 0.00 | 0.00 | 0.00 | 71 | 1008.8 |
| 20260505072305 | 59 | 187 | 2.0 | 8.0 | 0.00 | 0.00 | 0.00 | 71 | 1008.8 |
| 20260505071625 | 59 | 184 | 4.0 | 8.0 | 0.00 | 0.00 | 0.00 | 71 | 1008.8 |
| 20260505070945 | 58 | 160 | 2.0 | 6.0 | 0.00 | 0.00 | 0.00 | 71 | 1008.5 |
| 20260505070305 | 59 | 144 | 3.0 | 7.0 | 0.00 | 0.00 | 0.00 | 70 | 1008.5 |
| 20260505065625 | 59 | 158 | 2.0 | 6.0 | 0.00 | 0.00 | 0.00 | 70 | 1008.5 |
| 20260505064945 | 59 | 141 | 3.0 | 6.0 | 0.00 | 0.00 | 0.00 | 71 | 1008.8 |
| 20260505064305 | 59 | 147 | 2.0 | 6.0 | 0.00 | 0.00 | 0.00 | 70 | 1008.8 |
| 20260505063839 | 59 | 157 | 2.0 | 6.0 | 0.00 | 0.00 | 0.00 | 70 | 1008.8 |
| 20260505062945 | 59 | 108 | 2.0 | 4.0 | 0.00 | 0.00 | 0.00 | 70 | 1008.5 |
| 20260505062305 | 59 | 170 | 2.0 | 5.0 | 0.00 | 0.00 | 0.00 | 69 | 1008.8 |
| 20260505061836 | 59 | 152 | 2.0 | 5.0 | 0.00 | 0.00 | 0.00 | 68 | 1008.8 |
| 20260505061156 | 60 | 144 | 1.0 | 5.0 | 0.00 | 0.00 | 0.00 | 67 | 1008.8 |
| 20260505060305 | 60 | 158 | 2.0 | 6.0 | 0.00 | 0.00 | 0.00 | 67 | 1008.8 |
| 20260505055626 | 60 | 122 | 2.0 | 6.0 | 0.00 | 0.00 | 0.00 | 66 | 1008.8 |
| 20260505054945 | 60 | 132 | 2.0 | 8.0 | 0.00 | 0.00 | 0.00 | 66 | 1009.1 |
| 20260505054305 | 61 | 123 | 2.0 | 7.0 | 0.00 | 0.00 | 0.00 | 65 | 1009.1 |
| 20260505053835 | 61 | 155 | 3.0 | 5.0 | 0.00 | 0.00 | 0.00 | 65 | 1009.1 |
| 20260505053155 | 61 | 181 | 2.0 | 5.0 | 0.00 | 0.00 | 0.00 | 64 | 1009.1 |
| 20260505052306 | 61 | 145 | 3.0 | 6.0 | 0.00 | 0.00 | 0.00 | 64 | 1009.1 |
| 20260505051625 | 61 | 131 | 2.0 | 7.0 | 0.00 | 0.00 | 0.00 | 64 | 1009.1 |
| 20260505050945 | 62 | 162 | 2.0 | 8.0 | 0.00 | 0.00 | 0.00 | 63 | 1009.1 |
| 20260505050305 | 62 | 148 | 3.0 | 8.0 | 0.00 | 0.00 | 0.00 | 64 | 1009.1 |
| 20260505041625 | 62 | 146 | 2.0 | 6.0 | 0.00 | 0.00 | 0.00 | 62 | 1009.1 |
| 20260505041158 | 63 | 125 | 2.0 | 9.0 | 0.00 | 0.00 | 0.00 | 61 | 1009.1 |
| 20260505040305 | 63 | 176 | 3.0 | 10.0 | 0.00 | 0.00 | 0.00 | 60 | 1009.1 |
| 20260505035625 | 63 | 62 | 3.0 | 10.0 | 0.00 | 0.00 | 0.00 | 60 | 1009.1 |
| 20260505035155 | 64 | 153 | 3.0 | 8.0 | 0.00 | 0.00 | 0.00 | 60 | 1009.1 |
| 20260505034305 | 64 | 210 | 3.0 | 8.0 | 0.00 | 0.00 | 0.00 | 59 | 1009.1 |
| 20260505033625 | 64 | 111 | 3.0 | 10.0 | 0.00 | 0.00 | 0.00 | 59 | 1009.1 |
| 20260505033156 | 64 | 150 | 3.0 | 10.0 | 0.00 | 0.00 | 0.00 | 58 | 1009.1 |
| 20260505032306 | 64 | 194 | 4.0 | 10.0 | 0.00 | 0.00 | 0.00 | 58 | 1008.8 |
| 20260505031625 | 64 | 123 | 3.0 | 9.0 | 0.00 | 0.00 | 0.00 | 58 | 1009.1 |
| 20260505031158 | 64 | 176 | 3.0 | 10.0 | 0.00 | 0.00 | 0.00 | 58 | 1009.1 |
| 20260505030305 | 64 | 186 | 2.0 | 11.0 | 0.00 | 0.00 | 0.00 | 57 | 1009.1 |
| 20260505025625 | 65 | 145 | 4.0 | 11.0 | 0.00 | 0.00 | 0.00 | 57 | 1008.8 |
| 20260505025155 | 65 | 158 | 4.0 | 10.0 | 0.00 | 0.00 | 0.00 | 57 | 1009.1 |
| 20260505024305 | 65 | 93 | 4.0 | 11.0 | 0.00 | 0.00 | 0.00 | 56 | 1009.1 |
| 20260505023625 | 65 | 145 | 4.0 | 11.0 | 0.00 | 0.00 | 0.00 | 56 | 1009.1 |
| 20260505022945 | 65 | 138 | 4.0 | 14.0 | 0.00 | 0.00 | 0.00 | 56 | 1008.8 |
| 20260505022305 | 66 | 142 | 6.0 | 14.0 | 0.00 | 0.00 | 0.00 | 55 | 1008.8 |
| 20260505021625 | 66 | 141 | 5.0 | 12.0 | 0.00 | 0.00 | 0.00 | 55 | 1008.8 |
| 20260505020945 | 66 | 125 | 4.0 | 9.0 | 0.00 | 0.00 | 0.00 | 55 | 1008.8 |
| 20260505020306 | 66 | 133 | 4.0 | 14.0 | 0.00 | 0.00 | 0.00 | 55 | 1008.8 |
| 20260505015625 | 67 | 128 | 4.0 | 14.0 | 0.00 | 0.00 | 0.00 | 55 | 1008.8 |
| 20260505014945 | 67 | 140 | 3.0 | 11.0 | 0.00 | 0.00 | 0.00 | 55 | 1008.5 |
| 20260505014305 | 67 | 124 | 4.0 | 11.0 | 0.00 | 0.00 | 0.00 | 55 | 1008.5 |
| 20260505013837 | 67 | 176 | 4.0 | 11.0 | 0.00 | 0.00 | 0.00 | 54 | 1008.5 |
| 20260505012946 | 68 | 140 | 2.0 | 13.0 | 0.00 | 0.00 | 0.00 | 54 | 1008.5 |
| 20260505012305 | 68 | 137 | 4.0 | 15.0 | 0.00 | 0.00 | 0.00 | 53 | 1008.1 |
| 20260505011839 | 68 | 123 | 5.0 | 15.0 | 0.00 | 0.00 | 0.00 | 53 | 1008.1 |
| 20260505010946 | 68 | 120 | 4.0 | 11.0 | 0.00 | 0.00 | 0.00 | 54 | 1008.1 |
| 20260505010306 | 69 | 129 | 5.0 | 12.0 | 0.00 | 0.00 | 0.00 | 53 | 1007.8 |
| 20260505005625 | 69 | 128 | 4.0 | 12.0 | 0.00 | 0.00 | 0.00 | 53 | 1007.8 |
| 20260505004946 | 69 | 89 | 3.0 | 12.0 | 0.00 | 0.00 | 0.00 | 52 | 1007.8 |